Погода в Биджане

Россия / Еврейская автономная область     47°58′26″N   131°56′18″E
темп.,
°C
ветер,
м/с
пор.,
м/с
влажн.,
%
обл.,
%
осадки,
мм/ч
давл.,
гПа
погр.,
м
15 апреля, чт
чт1501:00−2зсз33434 0.0 101061
04:00−2зюз34455 0.0 101180
07:00−3юз36483 0.0 1012158
10:00+3юз233567 0.0 1012529
13:00+8зюз58314 0.0 10111991
16:00+10зюз462336 0.0 10102227
19:00+10юз122762 0.0 1011286
22:00+7в3433100 0.0 101242
16 апреля, пт
пт1601:00+6в4741100 0.0 1012142
04:00+5в4746100 0.0 1011186
07:00+4всв4950100 0.0 1010258
10:00+9вюв71147100 0.0 10091000
13:00+14ю11144699 0.0 10082058
16:00+14ю111646100 0.4 10072276
19:00+10ю81455100 0.1 10071401
22:00+9юв61152100 0.2 1008965
17 апреля, сб
сб1701:00+6юв5879100 0.9 1008771
04:00+5в4788100 3.1 1007669
07:00+5св3589100 0.5 1008649
10:00+5всв2489100 1.0 1010841
13:00+5св2391100 0.3 1011759
16:00+7с328084 0.3 1012520
19:00+8с347316 0.0 1012560
22:00+5ссв22854 0.0 101416
18 апреля, вс
вс1801:00+4с22881 0.0 101321
04:00+3ссв33925 0.0 101351
07:00+2с23915 0.0 101353
10:00+8ссв34640 0.0 1013523
13:00+12ссв44445 0.0 10111343
16:00+15ссв45365 0.0 10091722
19:00+15св34373 0.0 1008559
22:00+11ссз22515 0.0 100812
19 апреля, пн
пн1901:00+8ссв22634 0.0 100822
04:00+7с22670 0.0 100913
07:00+6с22720 0.0 100914
10:00+12ссз23510 0.0 1009452
13:00+16ссз33363 0.0 10071706
16:00+18с34260 0.0 10052100
19:00+17вюв222816 0.0 1005203
22:00+13з23393 0.0 100521